| time (UTC) | temp F | wind direction | speed MPH | gust MPH | rain 1hr in | rain 24hr in | rain mn in | humidity % | barometer mb |
| 20260831094707 | 62 | 70 | 1.0 | 3.0 | 0.00 | 0.02 | 0.02 | 99 | 1021.8 |
| 20260831093705 | 62 | 68 | 2.0 | 3.0 | 0.00 | 0.02 | 0.02 | 99 | 1021.9 |
| 20260831092702 | 62 | 79 | 1.0 | 2.0 | 0.00 | 0.02 | 0.02 | 99 | 1021.9 |
| 20260831091657 | 62 | 60 | 1.0 | 2.0 | 0.00 | 0.02 | 0.02 | 99 | 1022.0 |
| 20260831090653 | 62 | 87 | 0.0 | 2.0 | 0.00 | 0.02 | 0.02 | 99 | 1022.0 |
| 20260831085650 | 62 | 328 | 1.0 | 2.0 | 0.00 | 0.02 | 0.02 | 99 | 1022.1 |
| 20260831084647 | 62 | 150 | 1.0 | 2.0 | 0.00 | 0.02 | 0.02 | 99 | 1022.3 |
| 20260831083645 | 62 | 135 | 0.0 | 1.0 | 0.00 | 0.02 | 0.02 | 99 | 1022.1 |
| 20260831082644 | 62 | 104 | 2.0 | 2.0 | 0.00 | 0.02 | 0.02 | 99 | 1021.9 |
| 20260831081641 | 62 | 79 | 2.0 | 2.0 | 0.00 | 0.02 | 0.02 | 99 | 1021.9 |
| 20260831080638 | 62 | 64 | 4.0 | 5.0 | 0.00 | 0.02 | 0.02 | 99 | 1021.8 |
| 20260831075635 | 62 | 53 | 2.0 | 3.0 | 0.00 | 0.02 | 0.02 | 99 | 1021.9 |
| 20260831074634 | 62 | 56 | 0.0 | 2.0 | 0.00 | 0.02 | 0.02 | 99 | 1021.7 |
| 20260831073630 | 62 | 77 | 1.0 | 2.0 | 0.00 | 0.02 | 0.02 | 99 | 1021.6 |
| 20260831072625 | 62 | 95 | 1.0 | 2.0 | 0.00 | 0.02 | 0.02 | 99 | 1021.5 |
| 20260831071620 | 62 | 71 | 4.0 | 4.0 | 0.02 | 0.02 | 0.02 | 99 | 1021.5 |
| 20260831070620 | 62 | 72 | 2.0 | 4.0 | 0.00 | 0.02 | 0.02 | 99 | 1021.9 |
| 20260831065619 | 62 | 69 | 5.0 | 6.0 | 0.00 | 0.02 | 0.02 | 99 | 1021.9 |
| 20260831064619 | 62 | 13 | 2.0 | 4.0 | 0.00 | 0.02 | 0.02 | 99 | 1022.0 |
| 20260831063617 | 63 | 39 | 2.0 | 4.0 | 0.00 | 0.02 | 0.02 | 99 | 1021.8 |
| 20260831062612 | 63 | 37 | 1.0 | 3.0 | 0.00 | 0.02 | 0.02 | 99 | 1022.0 |
| 20260831061610 | 63 | 72 | 3.0 | 3.0 | 0.00 | 0.02 | 0.02 | 99 | 1022.1 |
| 20260831060608 | 63 | 106 | 1.0 | 2.0 | 0.00 | 0.02 | 0.02 | 99 | 1022.4 |
| 20260831055608 | 64 | 82 | 1.0 | 2.0 | 0.00 | 0.02 | 0.02 | 99 | 1022.3 |
| 20260831054603 | 64 | 72 | 2.0 | 3.0 | 0.00 | 0.02 | 0.02 | 99 | 1022.5 |
| 20260831053601 | 64 | 19 | 0.0 | 2.0 | 0.00 | 0.02 | 0.02 | 99 | 1022.5 |
| 20260831052601 | 64 | 80 | 2.0 | 2.0 | 0.00 | 0.02 | 0.02 | 99 | 1022.0 |
| 20260831051559 | 64 | 147 | 0.0 | 1.0 | 0.00 | 0.02 | 0.02 | 99 | 1022.1 |
| 20260831050558 | 64 | 166 | 1.0 | 2.0 | 0.00 | 0.02 | 0.02 | 99 | 1022.1 |
| 20260831045556 | 64 | 174 | 0.0 | 2.0 | 0.00 | 0.02 | 0.02 | 99 | 1022.3 |
| 20260831044553 | 64 | 170 | 1.0 | 2.0 | 0.00 | 0.02 | 0.02 | 99 | 1022.4 |
| 20260831043549 | 64 | 336 | 0.0 | 2.0 | 0.00 | 0.02 | 0.02 | 99 | 1022.6 |
| 20260831042543 | 64 | 172 | 0.0 | 2.0 | 0.05 | 0.02 | 0.02 | 99 | 1022.4 |
| 20260831041539 | 64 | 129 | 0.0 | 0.0 | 0.05 | 0.01 | 0.01 | 99 | 1022.5 |
| 20260831040539 | 64 | 57 | 0.0 | 1.0 | 0.02 | 0.00 | 0.00 | 99 | 1022.5 |
| 20260831035537 | 64 | 78 | 1.0 | 2.0 | 0.00 | 0.00 | 0.00 | 99 | 1022.4 |
| 20260831034532 | 64 | 92 | 2.0 | 3.0 | 0.00 | 0.00 | 0.00 | 99 | 1022.7 |
| 20260831033529 | 64 | 254 | 2.0 | 2.0 | 0.02 | 0.00 | 0.00 | 99 | 1022.6 |
| 20260831032529 | 64 | 199 | 1.0 | 2.0 | 0.00 | 0.00 | 0.00 | 99 | 1022.8 |
| 20260831031525 | 64 | 204 | 0.0 | 1.0 | 0.00 | 0.00 | 0.00 | 99 | 1022.7 |
| 20260831030523 | 64 | 217 | 0.0 | 1.0 | 0.00 | 0.00 | 0.00 | 99 | 1022.5 |
| 20260831025521 | 64 | 112 | 1.0 | 1.0 | 0.00 | 0.00 | 0.00 | 99 | 1022.5 |
| 20260831024518 | 64 | 173 | 0.0 | 1.0 | 0.00 | 0.00 | 0.00 | 99 | 1022.4 |
| 20260831023515 | 64 | 126 | 0.0 | 2.0 | 0.00 | 0.00 | 0.00 | 99 | 1022.6 |
| 20260831022515 | 64 | 157 | 0.0 | 1.0 | 0.00 | 0.00 | 0.00 | 99 | 1022.4 |
| 20260831021515 | 64 | 161 | 0.0 | 2.0 | 0.00 | 0.00 | 0.00 | 99 | 1022.6 |
| 20260831020512 | 64 | 38 | 0.0 | 1.0 | 0.00 | 0.00 | 0.00 | 99 | 1022.8 |
| 20260831015508 | 64 | 202 | 0.0 | 2.0 | 0.00 | 0.00 | 0.00 | 99 | 1022.8 |
| 20260831014504 | 64 | 202 | 0.0 | 3.0 | 0.00 | 0.00 | 0.00 | 99 | 1022.6 |
| 20260831013501 | 64 | 168 | 0.0 | 1.0 | 0.00 | 0.00 | 0.00 | 99 | 1022.6 |
| 20260831012456 | 64 | 76 | 0.0 | 2.0 | 0.00 | 0.00 | 0.00 | 99 | 1022.6 |
| 20260831011456 | 65 | 173 | 0.0 | 2.0 | 0.00 | 0.00 | 0.00 | 99 | 1022.5 |
| 20260831010452 | 65 | 110 | 0.0 | 1.0 | 0.00 | 0.00 | 0.00 | 99 | 1022.6 |
| 20260831005450 | 65 | 158 | 1.0 | 1.0 | 0.00 | 0.00 | 0.00 | 99 | 1022.1 |
| 20260831004446 | 65 | 142 | 0.0 | 2.0 | 0.00 | 0.00 | 0.00 | 99 | 1022.3 |
| 20260831003443 | 65 | 55 | 0.0 | 2.0 | 0.00 | 0.00 | 0.00 | 99 | 1021.9 |
| 20260831002441 | 65 | 14 | 0.0 | 1.0 | 0.00 | 0.00 | 0.00 | 99 | 1021.4 |
| 20260831001438 | 65 | 188 | 0.0 | 2.0 | 0.00 | 0.00 | 0.00 | 99 | 1021.7 |
| 20260831000436 | 65 | 135 | 0.0 | 1.0 | 0.00 | 0.00 | 0.00 | 99 | 1021.3 |
| 20260830235436 | 66 | 350 | 0.0 | 2.0 | 0.00 | 0.00 | 0.00 | 99 | 1021.6 |
| 20260830234432 | 66 | 150 | 0.0 | 2.0 | 0.00 | 0.00 | 0.00 | 98 | 1021.2 |
| 20260830233429 | 66 | 178 | 0.0 | 2.0 | 0.00 | 0.00 | 0.00 | 98 | 1021.4 |
| 20260830232426 | 66 | 126 | 0.0 | 1.0 | 0.00 | 0.00 | 0.00 | 98 | 1021.4 |
| 20260830231423 | 66 | 152 | 0.0 | 1.0 | 0.00 | 0.00 | 0.00 | 97 | 1021.6 |
| 20260830230418 | 66 | 174 | 1.0 | 2.0 | 0.00 | 0.00 | 0.00 | 97 | 1021.4 |
| 20260830225413 | 67 | 337 | 1.0 | 2.0 | 0.00 | 0.00 | 0.00 | 96 | 1021.8 |
| 20260830224412 | 67 | 133 | 0.0 | 1.0 | 0.00 | 0.00 | 0.00 | 96 | 1021.7 |
| 20260830223411 | 67 | 156 | 0.0 | 2.0 | 0.00 | 0.00 | 0.00 | 96 | 1021.6 |
| 20260830222406 | 67 | 150 | 2.0 | 2.0 | 0.00 | 0.00 | 0.00 | 96 | 1021.3 |
| 20260830221403 | 66 | 64 | 1.0 | 3.0 | 0.00 | 0.00 | 0.00 | 95 | 1021.5 |
| 20260830220358 | 67 | 83 | 4.0 | 4.0 | 0.00 | 0.00 | 0.00 | 95 | 1021.6 |
| 20260830215356 | 67 | 335 | 1.0 | 3.0 | 0.00 | 0.00 | 0.00 | 95 | 1021.5 |
| 20260830214352 | 68 | 69 | 3.0 | 4.0 | 0.00 | 0.00 | 0.00 | 94 | 1021.5 |
| 20260830213348 | 68 | 26 | 2.0 | 2.0 | 0.00 | 0.00 | 0.00 | 94 | 1021.7 |
| 20260830212345 | 68 | 359 | 2.0 | 4.0 | 0.00 | 0.00 | 0.00 | 93 | 1021.7 |
| 20260830211344 | 68 | 346 | 4.0 | 4.0 | 0.00 | 0.00 | 0.00 | 92 | 1021.5 |
| 20260830210339 | 69 | 353 | 4.0 | 5.0 | 0.00 | 0.00 | 0.00 | 89 | 1021.4 |
| 20260830205336 | 69 | 343 | 0.0 | 2.0 | 0.00 | 0.00 | 0.00 | 88 | 1021.3 |
| 20260830204336 | 70 | 113 | 0.0 | 0.0 | 0.00 | 0.00 | 0.00 | 86 | 1021.4 |
| 20260830203334 | 70 | 37 | 0.0 | 2.0 | 0.00 | 0.00 | 0.00 | 84 | 1021.2 |
| 20260830202329 | 70 | 191 | 3.0 | 4.0 | 0.00 | 0.00 | 0.00 | 84 | 1021.2 |
| 20260830201324 | 70 | 218 | 2.0 | 6.0 | 0.00 | 0.00 | 0.00 | 84 | 1021.0 |
| 20260830200319 | 71 | 221 | 2.0 | 6.0 | 0.00 | 0.00 | 0.00 | 84 | 1021.1 |
| 20260830195314 | 71 | 238 | 2.0 | 4.0 | 0.00 | 0.00 | 0.00 | 83 | 1021.1 |
| 20260830194312 | 71 | 180 | 1.0 | 4.0 | 0.00 | 0.00 | 0.00 | 82 | 1021.4 |
| 20260830193307 | 72 | 201 | 2.0 | 3.0 | 0.00 | 0.00 | 0.00 | 81 | 1021.3 |
| 20260830192305 | 72 | 9 | 0.0 | 4.0 | 0.00 | 0.00 | 0.00 | 79 | 1021.1 |
| 20260830191258 | 72 | 223 | 4.0 | 5.0 | 0.00 | 0.00 | 0.00 | 78 | 1021.6 |
| 20260830190255 | 73 | 220 | 2.0 | 4.0 | 0.00 | 0.00 | 0.00 | 79 | 1021.5 |
| 20260830185255 | 74 | 171 | 2.0 | 4.0 | 0.00 | 0.00 | 0.00 | 77 | 1021.5 |
| 20260830184253 | 75 | 211 | 3.0 | 4.0 | 0.00 | 0.00 | 0.00 | 75 | 1021.6 |
| 20260830183249 | 75 | 236 | 2.0 | 6.0 | 0.00 | 0.00 | 0.00 | 76 | 1021.8 |
| 20260830182246 | 74 | 190 | 4.0 | 6.0 | 0.00 | 0.00 | 0.00 | 76 | 1021.9 |
| 20260830181243 | 73 | 187 | 3.0 | 5.0 | 0.00 | 0.00 | 0.00 | 77 | 1021.8 |
| 20260830180243 | 73 | 180 | 3.0 | 5.0 | 0.00 | 0.00 | 0.00 | 78 | 1022.0 |
| 20260830175238 | 73 | 203 | 3.0 | 6.0 | 0.00 | 0.00 | 0.00 | 78 | 1022.1 |
| 20260830174234 | 72 | 200 | 2.0 | 6.0 | 0.00 | 0.00 | 0.00 | 79 | 1022.1 |
| 20260830173229 | 72 | 183 | 0.0 | 4.0 | 0.00 | 0.00 | 0.00 | 81 | 1022.0 |
| 20260830172228 | 73 | 218 | 4.0 | 5.0 | 0.00 | 0.00 | 0.00 | 80 | 1022.3 |
| 20260830171224 | 72 | 220 | 3.0 | 6.0 | 0.00 | 0.00 | 0.00 | 79 | 1022.3 |
| 20260830170223 | 72 | 214 | 2.0 | 4.0 | 0.00 | 0.00 | 0.00 | 79 | 1022.0 |
| 20260830165219 | 73 | 192 | 5.0 | 6.0 | 0.00 | 0.00 | 0.00 | 79 | 1022.4 |
| 20260830164216 | 71 | 215 | 1.0 | 7.0 | 0.00 | 0.00 | 0.00 | 85 | 1022.3 |
| 20260830163214 | 71 | 209 | 7.0 | 7.0 | 0.00 | 0.00 | 0.00 | 81 | 1022.4 |
| 20260830162211 | 72 | 48 | 1.0 | 6.0 | 0.00 | 0.00 | 0.00 | 81 | 1022.4 |
| 20260830161206 | 71 | 213 | 7.0 | 8.0 | 0.00 | 0.00 | 0.00 | 81 | 1022.7 |
| 20260830160202 | 72 | 217 | 4.0 | 10.0 | 0.00 | 0.00 | 0.00 | 79 | 1022.6 |
| 20260830155200 | 72 | 77 | 3.0 | 6.0 | 0.00 | 0.00 | 0.00 | 78 | 1022.9 |
| 20260830154157 | 71 | 196 | 2.0 | 7.0 | 0.00 | 0.00 | 0.00 | 82 | 1023.0 |
| 20260830153154 | 72 | 198 | 7.0 | 9.0 | 0.00 | 0.00 | 0.00 | 80 | 1022.9 |
| 20260830152152 | 71 | 171 | 2.0 | 6.0 | 0.00 | 0.00 | 0.00 | 81 | 1022.9 |
| 20260830151152 | 69 | 221 | 4.0 | 9.0 | 0.00 | 0.00 | 0.00 | 84 | 1023.0 |
| 20260830150148 | 68 | 210 | 3.0 | 9.0 | 0.00 | 0.00 | 0.00 | 85 | 1023.0 |
| 20260830145148 | 68 | 196 | 5.0 | 6.0 | 0.00 | 0.00 | 0.00 | 84 | 1022.9 |
| 20260830144145 | 69 | 202 | 4.0 | 7.0 | 0.00 | 0.00 | 0.00 | 84 | 1022.9 |
| 20260830143145 | 68 | 197 | 2.0 | 5.0 | 0.00 | 0.00 | 0.00 | 84 | 1022.6 |
| 20260830142141 | 68 | 167 | 1.0 | 6.0 | 0.00 | 0.00 | 0.00 | 85 | 1022.7 |
| 20260830141137 | 68 | 197 | 3.0 | 7.0 | 0.00 | 0.00 | 0.00 | 84 | 1022.5 |
| 20260830140133 | 68 | 206 | 8.0 | 11.0 | 0.00 | 0.00 | 0.00 | 83 | 1022.6 |
| 20260830135128 | 67 | 190 | 1.0 | 8.0 | 0.00 | 0.00 | 0.00 | 83 | 1023.0 |
| 20260830134125 | 67 | 201 | 11.0 | 11.0 | 0.00 | 0.00 | 0.00 | 84 | 1023.1 |
| 20260830133121 | 66 | 206 | 5.0 | 7.0 | 0.00 | 0.00 | 0.00 | 87 | 1023.1 |
| 20260830132119 | 66 | 197 | 4.0 | 7.0 | 0.00 | 0.00 | 0.00 | 86 | 1023.0 |
| 20260830131119 | 65 | 188 | 1.0 | 6.0 | 0.00 | 0.00 | 0.00 | 87 | 1023.2 |
| 20260830130114 | 65 | 201 | 5.0 | 7.0 | 0.00 | 0.00 | 0.00 | 87 | 1023.1 |
| 20260830125114 | 65 | 186 | 2.0 | 7.0 | 0.00 | 0.00 | 0.00 | 87 | 1023.0 |
| 20260830124113 | 65 | 191 | 3.0 | 6.0 | 0.00 | 0.00 | 0.00 | 87 | 1023.3 |
| 20260830123111 | 65 | 178 | 2.0 | 6.0 | 0.00 | 0.00 | 0.00 | 86 | 1023.2 |
| 20260830122110 | 64 | 192 | 3.0 | 8.0 | 0.00 | 0.00 | 0.00 | 87 | 1023.2 |
| 20260830121105 | 63 | 194 | 4.0 | 5.0 | 0.00 | 0.00 | 0.00 | 87 | 1023.4 |
| 20260830115059 | 61 | 195 | 3.0 | 4.0 | 0.00 | 0.00 | 0.00 | 87 | 1023.3 |
| 20260830114055 | 61 | 201 | 3.0 | 5.0 | 0.00 | 0.00 | 0.00 | 86 | 1023.3 |
| 20260830113051 | 63 | 196 | 3.0 | 4.0 | 0.00 | 0.00 | 0.00 | 83 | 1023.6 |
| 20260830112049 | 61 | 214 | 3.0 | 5.0 | 0.00 | 0.00 | 0.00 | 85 | 1023.5 |
| 20260830111047 | 61 | 202 | 4.0 | 4.0 | 0.00 | 0.00 | 0.00 | 85 | 1023.4 |
| 20260830110042 | 60 | 191 | 3.0 | 5.0 | 0.00 | 0.00 | 0.00 | 85 | 1023.6 |
| 20260830105038 | 60 | 190 | 3.0 | 6.0 | 0.00 | 0.00 | 0.00 | 84 | 1023.6 |
| 20260830104037 | 60 | 203 | 5.0 | 5.0 | 0.00 | 0.00 | 0.00 | 84 | 1023.5 |
| 20260830103037 | 60 | 190 | 2.0 | 4.0 | 0.00 | 0.00 | 0.00 | 83 | 1023.5 |
| 20260830102032 | 60 | 164 | 2.0 | 3.0 | 0.00 | 0.00 | 0.00 | 82 | 1023.4 |
| 20260830101027 | 60 | 138 | 1.0 | 2.0 | 0.00 | 0.00 | 0.00 | 82 | 1023.8 |
| 20260830100026 | 60 | 116 | 1.0 | 2.0 | 0.00 | 0.00 | 0.00 | 81 | 1023.7 |
| 20260830095023 | 59 | 140 | 1.0 | 3.0 | 0.00 | 0.00 | 0.00 | 81 | 1023.6 |